Location: Battersea Observatory
(44.4318°N, 76.3841°W)
Time: 23:01:24
(UTC-04:00)

Tiros 1 despin weight - Pass Details

Date: 28 January 2022
Orbit: 592 x 639 km, 48.2° (Epoch: 25 May)

Event Time Altitude Azimuth Distance (km) Brightness Sun altitude
Rises 15:14:45 0° 220° (SW) 2,842 ? 15.7°
Reaches altitude 10° 15:17:08 10° 212° (SSW) 1,950 ? 15.4°
Maximum altitude 15:21:16 38° 144° (SE) 945 ? 14.9°
Drops below altitude 10° 15:25:30 10° 77° (ENE) 1,989 ? 14.4°
Sets 15:27:57 0° 69° (ENE) 2,907 ? 14.1°
